When you browse on this site, cookies collect data to enhance your experience and personalize the content and advertising you see.
Visit our Privacy Policy to learn more. By continuing to use the site, you agree to this use of cookies and data.
  • în România
  • Lista ţărilor
  • Pe 7 zile
  • Temperatura apei
  • Hartă satelitară
  • Meteo pe hartă
  • Widget-uri
  • user-avatar
    Intrare

    Meteo pe oră la Grinsboro

    Astăzi, 20 Mai, Luni

    Timp Temperatura Precipitaţii Vânt Presiune Umiditate
    00:00 +22°C° 0 mm 4 m/s 741 mmHg 78%
    01:00 +22°C° 0 mm 4 m/s 741 mmHg 83%
    02:00 +21°C° 0 mm 4 m/s 741 mmHg 86%
    03:00 +21°C° 0 mm 3 m/s 741 mmHg 88%
    04:00 +20°C° 0 mm 3 m/s 741 mmHg 91%
    05:00 +21°C° 0 mm 4 m/s 741 mmHg 89%
    06:00 +21°C° 0 mm 4 m/s 741 mmHg 87%
    07:00 +22°C° 0 mm 4 m/s 741 mmHg 85%
    08:00 +25°C° 0 mm 4 m/s 741 mmHg 77%
    09:00 +27°C° 0 mm 4 m/s 741 mmHg 69%
    10:00 +29°C° 0 mm 4 m/s 741 mmHg 60%
    11:00 +30°C° 0 mm 5 m/s 740 mmHg 55%
    12:00 +32°C° 0 mm 5 m/s 740 mmHg 50%
    13:00 +33°C° 0 mm 5 m/s 740 mmHg 44%
    14:00 +32°C° 0 mm 5 m/s 739 mmHg 49%
    15:00 +30°C° 0 mm 4 m/s 739 mmHg 53%
    16:00 +30°C° 0 mm 3 m/s 738 mmHg 57%
    17:00 +28°C° 0 mm 3 m/s 738 mmHg 61%
    18:00 +27°C° 0 mm 2 m/s 738 mmHg 66%
    19:00 +26°C° 0 mm 2 m/s 738 mmHg 70%
    20:00 +25°C° 0 mm 2 m/s 739 mmHg 73%
    21:00 +24°C° 0 mm 2 m/s 739 mmHg 75%
    22:00 +23°C° 0 mm 2 m/s 739 mmHg 77%
    23:00 +21°C° 0 mm 2 m/s 739 mmHg 73%

    Mâine, 21 Mai, Marţi

    Timp Temperatura Precipitaţii Vânt Presiune Umiditate
    00:00 +20°C° 0 mm 2 m/s 739 mmHg 70%
    01:00 +19°C° 0 mm 2 m/s 739 mmHg 66%
    02:00 +18°C° 0 mm 2 m/s 739 mmHg 68%
    03:00 +18°C° 0 mm 1 m/s 739 mmHg 70%
    04:00 +16°C° 0 mm 1 m/s 739 mmHg 72%
    05:00 +17°C° 0 mm 2 m/s 740 mmHg 72%
    06:00 +17°C° 0 mm 2 m/s 740 mmHg 72%
    07:00 +18°C° 0 mm 3 m/s 741 mmHg 72%
    08:00 +20°C° 0 mm 3 m/s 741 mmHg 65%
    09:00 +21°C° 0 mm 3 m/s 741 mmHg 58%
    10:00 +24°C° 0 mm 3 m/s 741 mmHg 52%
    11:00 +26°C° 0 mm 2 m/s 741 mmHg 47%
    12:00 +27°C° 0 mm 2 m/s 741 mmHg 43%
    13:00 +28°C° 0 mm 1 m/s 741 mmHg 39%
    14:00 +29°C° 0 mm 1 m/s 740 mmHg 38%
    15:00 +29°C° 0 mm 1 m/s 740 mmHg 38%
    16:00 +27°C° 0 mm 0 m/s 740 mmHg 38%
    17:00 +27°C° 0 mm 1 m/s 740 mmHg 45%
    18:00 +26°C° 0 mm 1 m/s 740 mmHg 52%
    19:00 +24°C° 0 mm 1 m/s 740 mmHg 58%
    20:00 +23°C° 0 mm 2 m/s 741 mmHg 60%
    21:00 +21°C° 0 mm 2 m/s 742 mmHg 61%
    22:00 +20°C° 0 mm 2 m/s 742 mmHg 63%
    23:00 +19°C° 0 mm 2 m/s 743 mmHg 66%

    Poimâine, 22 Mai, Miercuri

    Timp Temperatura Precipitaţii Vânt Presiune Umiditate
    00:00 +18°C° 0 mm 2 m/s 743 mmHg 69%
    01:00 +17°C° 0 mm 3 m/s 743 mmHg 71%
    02:00 +16°C° 0 mm 2 m/s 743 mmHg 71%
    03:00 +15°C° 0 mm 2 m/s 744 mmHg 71%
    04:00 +15°C° 0 mm 2 m/s 744 mmHg 71%
    05:00 +15°C° 0 mm 2 m/s 744 mmHg 71%
    06:00 +16°C° 0 mm 2 m/s 745 mmHg 71%
    07:00 +17°C° 0 mm 2 m/s 745 mmHg 72%
    08:00 +19°C° 0 mm 2 m/s 746 mmHg 64%
    09:00 +21°C° 0 mm 2 m/s 746 mmHg 57%
    10:00 +24°C° 0 mm 2 m/s 746 mmHg 50%
    11:00 +25°C° 0 mm 2 m/s 746 mmHg 49%
    12:00 +26°C° 0 mm 2 m/s 746 mmHg 48%
    13:00 +28°C° 0 mm 2 m/s 746 mmHg 46%
    14:00 +28°C° 0 mm 2 m/s 745 mmHg 47%
    15:00 +29°C° 0 mm 2 m/s 745 mmHg 47%
    16:00 +29°C° 0 mm 2 m/s 745 mmHg 48%
    17:00 +27°C° 0 mm 2 m/s 745 mmHg 54%
    18:00 +26°C° 0 mm 2 m/s 745 mmHg 61%
    19:00 +24°C° 0 mm 2 m/s 745 mmHg 67%
    20:00 +23°C° 0 mm 2 m/s 745 mmHg 69%
    21:00 +21°C° 0 mm 2 m/s 746 mmHg 70%
    22:00 +20°C° 0 mm 2 m/s 746 mmHg 71%
    23:00 +20°C° 0 mm 2 m/s 746 mmHg 71%

    23 Mai, Joi

    Timp Temperatura Precipitaţii Vânt Presiune Umiditate
    00:00 +20°C° 0 mm 2 m/s 746 mmHg 71%
    01:00 +19°C° 0 mm 2 m/s 746 mmHg 72%
    02:00 +19°C° 0 mm 3 m/s 746 mmHg 74%
    03:00 +19°C° 0 mm 3 m/s 746 mmHg 77%
    04:00 +19°C° 0 mm 3 m/s 746 mmHg 79%
    05:00 +20°C° 0 mm 3 m/s 746 mmHg 79%
    06:00 +21°C° 0 mm 4 m/s 746 mmHg 79%
    07:00 +21°C° 0 mm 4 m/s 746 mmHg 80%
    08:00 +23°C° 0.1 mm 4 m/s 746 mmHg 76%
    09:00 +26°C° 0.1 mm 4 m/s 747 mmHg 73%
    10:00 +28°C° 0.1 mm 4 m/s 747 mmHg 70%
    11:00 +29°C° 0.8 mm 4 m/s 746 mmHg 67%
    12:00 +30°C° 0.8 mm 3 m/s 746 mmHg 65%
    13:00 +31°C° 0.8 mm 3 m/s 745 mmHg 62%
    14:00 +33°C° 0.3 mm 3 m/s 744 mmHg 59%
    15:00 +33°C° 0.3 mm 3 m/s 744 mmHg 57%
    16:00 +33°C° 0.3 mm 3 m/s 743 mmHg 55%
    17:00 +31°C° 0 mm 3 m/s 743 mmHg 60%
    18:00 +30°C° 0 mm 3 m/s 743 mmHg 65%
    19:00 +28°C° 0 mm 3 m/s 744 mmHg 70%
    20:00 +27°C° 0 mm 3 m/s 743 mmHg 73%
    21:00 +26°C° 0 mm 3 m/s 743 mmHg 76%
    22:00 +25°C° 0 mm 3 m/s 743 mmHg 79%
    23:00 +25°C° 0 mm 3 m/s 743 mmHg 80%

    24 Mai, Vineri

    Timp Temperatura Precipitaţii Vânt Presiune Umiditate
    00:00 +24°C° 0 mm 3 m/s 743 mmHg 82%
    01:00 +24°C° 0 mm 3 m/s 742 mmHg 83%
    02:00 +22°C° 0 mm 3 m/s 742 mmHg 85%
    03:00 +23°C° 0 mm 2 m/s 742 mmHg 86%
    04:00 +23°C° 0 mm 2 m/s 742 mmHg 87%
    05:00 +22°C° 0 mm 3 m/s 742 mmHg 84%
    06:00 +24°C° 0 mm 3 m/s 742 mmHg 80%
    07:00 +25°C° 0 mm 3 m/s 743 mmHg 77%
    08:00 +27°C° 0 mm 3 m/s 743 mmHg 69%
    09:00 +29°C° 0 mm 4 m/s 743 mmHg 62%
    10:00 +33°C° 0 mm 4 m/s 743 mmHg 54%
    11:00 +34°C° 0 mm 4 m/s 743 mmHg 51%
    12:00 +35°C° 0 mm 3 m/s 743 mmHg 47%
    13:00 +36°C° 0 mm 3 m/s 742 mmHg 44%
    14:00 +36°C° 0 mm 3 m/s 742 mmHg 46%
    15:00 +35°C° 0 mm 2 m/s 741 mmHg 48%
    16:00 +35°C° 0 mm 2 m/s 741 mmHg 50%
    17:00 +34°C° 0 mm 2 m/s 741 mmHg 55%
    18:00 +31°C° 0 mm 2 m/s 741 mmHg 60%
    19:00 +30°C° 0 mm 2 m/s 741 mmHg 65%
    20:00 +29°C° 0.2 mm 2 m/s 742 mmHg 68%
    21:00 +27°C° 0.2 mm 2 m/s 742 mmHg 70%
    22:00 +26°C° 0.2 mm 2 m/s 742 mmHg 72%
    23:00 +25°C° 0 mm 2 m/s 742 mmHg 74%

    25 Mai, Sâmbătă

    Timp Temperatura Precipitaţii Vânt Presiune Umiditate
    00:00 +24°C° 0 mm 2 m/s 742 mmHg 76%
    01:00 +23°C° 0 mm 2 m/s 742 mmHg 79%
    02:00 +21°C° 0 mm 2 m/s 742 mmHg 79%
    03:00 +20°C° 0 mm 2 m/s 742 mmHg 79%
    04:00 +19°C° 0 mm 2 m/s 742 mmHg 78%
    05:00 +20°C° 0 mm 2 m/s 743 mmHg 77%
    06:00 +20°C° 0 mm 2 m/s 743 mmHg 76%
    07:00 +20°C° 0 mm 2 m/s 744 mmHg 75%
    08:00 +23°C° 0 mm 2 m/s 744 mmHg 69%
    09:00 +25°C° 0 mm 2 m/s 744 mmHg 63%
    10:00 +27°C° 0 mm 1 m/s 744 mmHg 56%
    11:00 +29°C° 0 mm 1 m/s 744 mmHg 54%
    12:00 +30°C° 0 mm 1 m/s 743 mmHg 51%
    13:00 +32°C° 0 mm 1 m/s 743 mmHg 48%
    14:00 +32°C° 0 mm 1 m/s 743 mmHg 48%
    15:00 +32°C° 0 mm 2 m/s 742 mmHg 48%
    16:00 +34°C° 0 mm 2 m/s 742 mmHg 48%
    17:00 +31°C° 0 mm 2 m/s 742 mmHg 54%
    18:00 +30°C° 0 mm 1 m/s 741 mmHg 61%
    19:00 +28°C° 0 mm 1 m/s 741 mmHg 67%
    20:00 +28°C° 0 mm 1 m/s 742 mmHg 68%
    21:00 +27°C° 0 mm 1 m/s 742 mmHg 70%
    22:00 +26°C° 0 mm 1 m/s 742 mmHg 72%
    23:00 +25°C° 0 mm 1 m/s 742 mmHg 75%
    Arată mai mult